owner,sensor,date,latitude,longitude,vertical_datum,sea_water_practical_salinity,qcFlag 
SCCF RECON,ioos:station:SCCF:13:1,2019-08-01T04:00:00Z,26.5255,-82.0032,2.22,12.76,11111222 
SCCF RECON,ioos:station:SCCF:13:1,2019-08-01T05:00:00Z,26.5255,-82.0032,2.27,13.43,11111222 
SCCF RECON,ioos:station:SCCF:13:1,2019-08-01T06:00:00Z,26.5255,-82.0032,2.29,15.77,11111222 
SCCF RECON,ioos:station:SCCF:13:1,2019-08-01T07:00:00Z,26.5255,-82.0032,2.332,18.0,11111222 
SCCF RECON,ioos:station:SCCF:13:1,2019-08-01T08:00:00Z,26.5255,-82.0032,2.376,23.48,11111222 
SCCF RECON,ioos:station:SCCF:13:1,2019-08-01T09:00:00Z,26.5255,-82.0032,2.354,25.76,11111222 
SCCF RECON,ioos:station:SCCF:13:1,2019-08-01T10:00:00Z,26.5255,-82.0032,2.28,26.18,11111222 
SCCF RECON,ioos:station:SCCF:13:1,2019-08-01T11:00:00Z,26.5255,-82.0032,2.17,25.61,11111222 
SCCF RECON,ioos:station:SCCF:13:1,2019-08-01T12:00:00Z,26.5255,-82.0032,2.11,15.33,11111222 
SCCF RECON,ioos:station:SCCF:13:1,2019-08-01T13:00:00Z,26.5255,-82.0032,2.17,13.09,11111222 
SCCF RECON,ioos:station:SCCF:13:1,2019-08-01T14:00:00Z,26.5255,-82.0032,2.38,16.94,11111222 
SCCF RECON,ioos:station:SCCF:13:1,2019-08-01T15:00:00Z,26.5255,-82.0032,2.508,23.32,11111222 
SCCF RECON,ioos:station:SCCF:13:1,2019-08-01T16:00:00Z,26.5255,-82.0032,2.61,25.38,11111222 
SCCF RECON,ioos:station:SCCF:13:1,2019-08-01T17:00:00Z,26.5255,-82.0032,2.67,28.69,11111222 
SCCF RECON,ioos:station:SCCF:13:1,2019-08-01T18:00:00Z,26.5255,-82.0032,2.71,29.49,11111222 
SCCF RECON,ioos:station:SCCF:13:1,2019-08-01T19:00:00Z,26.5255,-82.0032,2.701,29.52,11111222 
SCCF RECON,ioos:station:SCCF:13:1,2019-08-01T20:00:00Z,26.5255,-82.0032,2.72,29.78,11111222 
SCCF RECON,ioos:station:SCCF:13:1,2019-08-01T21:00:00Z,26.5255,-82.0032,2.46,29.47,11111222 
SCCF RECON,ioos:station:SCCF:13:1,2019-08-01T22:00:00Z,26.5255,-82.0032,2.3,24.81,11111222 
SCCF RECON,ioos:station:SCCF:13:1,2019-08-01T23:00:00Z,26.5255,-82.0032,2.2,21.41,11111222 
SCCF RECON,ioos:station:SCCF:13:1,2019-08-02T04:00:00Z,26.5255,-82.0032,2.16,14.0,11111222 
SCCF RECON,ioos:station:SCCF:13:1,2019-08-02T05:00:00Z,26.5255,-82.0032,2.28,14.87,11111222 
SCCF RECON,ioos:station:SCCF:13:1,2019-08-02T06:00:00Z,26.5255,-82.0032,2.36,18.21,11111222 
SCCF RECON,ioos:station:SCCF:13:1,2019-08-02T07:00:00Z,26.5255,-82.0032,2.43,22.15,11111222 
SCCF RECON,ioos:station:SCCF:13:1,2019-08-02T08:00:00Z,26.5255,-82.0032,2.46,26.03,11111222 
SCCF RECON,ioos:station:SCCF:13:1,2019-08-02T09:00:00Z,26.5255,-82.0032,2.427,26.86,11111222 
SCCF RECON,ioos:station:SCCF:13:1,2019-08-02T10:00:00Z,26.5255,-82.0032,2.341,27.08,11111222 
SCCF RECON,ioos:station:SCCF:13:1,2019-08-02T11:00:00Z,26.5255,-82.0032,2.29,26.99,11111222 
SCCF RECON,ioos:station:SCCF:13:1,2019-08-02T12:00:00Z,26.5255,-82.0032,2.248,24.73,11111222 
SCCF RECON,ioos:station:SCCF:13:1,2019-08-02T13:00:00Z,26.5255,-82.0032,2.27,21.54,11111222 
SCCF RECON,ioos:station:SCCF:13:1,2019-08-02T14:00:00Z,26.5255,-82.0032,2.365,22.99,11111222 
SCCF RECON,ioos:station:SCCF:13:1,2019-08-02T15:00:00Z,26.5255,-82.0032,2.53,23.89,11111222 
SCCF RECON,ioos:station:SCCF:13:1,2019-08-02T16:00:00Z,26.5255,-82.0032,2.653,26.25,11111222 
SCCF RECON,ioos:station:SCCF:13:1,2019-08-02T17:00:00Z,26.5255,-82.0032,2.73,29.8,11111222 
SCCF RECON,ioos:station:SCCF:13:1,2019-08-02T18:00:00Z,26.5255,-82.0032,2.78,30.26,11111222 
SCCF RECON,ioos:station:SCCF:13:1,2019-08-02T19:00:00Z,26.5255,-82.0032,2.807,29.85,11111222 
SCCF RECON,ioos:station:SCCF:13:1,2019-08-02T20:00:00Z,26.5255,-82.0032,2.81,30.53,11111222 
SCCF RECON,ioos:station:SCCF:13:1,2019-08-02T21:00:00Z,26.5255,-82.0032,2.66,30.53,11111222 
SCCF RECON,ioos:station:SCCF:13:1,2019-08-02T22:00:00Z,26.5255,-82.0032,2.536,30.32,11111222 
SCCF RECON,ioos:station:SCCF:13:1,2019-08-02T23:00:00Z,26.5255,-82.0032,2.42,26.58,11111222 
SCCF RECON,ioos:station:SCCF:13:1,2019-08-03T04:00:00Z,26.5255,-82.0032,2.26,16.38,11111222 
SCCF RECON,ioos:station:SCCF:13:1,2019-08-03T05:00:00Z,26.5255,-82.0032,2.38,15.54,11111222 
SCCF RECON,ioos:station:SCCF:13:1,2019-08-03T06:00:00Z,26.5255,-82.0032,2.45,17.09,11111222 
SCCF RECON,ioos:station:SCCF:13:1,2019-08-03T07:00:00Z,26.5255,-82.0032,2.52,21.01,11111222 
SCCF RECON,ioos:station:SCCF:13:1,2019-08-03T08:00:00Z,26.5255,-82.0032,2.58,25.83,11111222 
SCCF RECON,ioos:station:SCCF:13:1,2019-08-03T09:00:00Z,26.5255,-82.0032,2.59,27.98,11111222 
SCCF RECON,ioos:station:SCCF:13:1,2019-08-03T10:00:00Z,26.5255,-82.0032,2.53,28.02,11111222 
SCCF RECON,ioos:station:SCCF:13:1,2019-08-03T11:00:00Z,26.5255,-82.0032,2.467,28.57,11111222 
SCCF RECON,ioos:station:SCCF:13:1,2019-08-03T12:00:00Z,26.5255,-82.0032,2.41,26.62,11111222 
SCCF RECON,ioos:station:SCCF:13:1,2019-08-03T13:00:00Z,26.5255,-82.0032,2.34,19.19,11111222 
SCCF RECON,ioos:station:SCCF:13:1,2019-08-03T14:00:00Z,26.5255,-82.0032,2.32,16.74,11111222 
SCCF RECON,ioos:station:SCCF:13:1,2019-08-03T15:00:00Z,26.5255,-82.0032,2.4,16.65,11111222 
SCCF RECON,ioos:station:SCCF:13:1,2019-08-03T16:00:00Z,26.5255,-82.0032,2.558,19.13,11111222 
SCCF RECON,ioos:station:SCCF:13:1,2019-08-03T17:00:00Z,26.5255,-82.0032,2.654,24.11,11111222 
SCCF RECON,ioos:station:SCCF:13:1,2019-08-03T18:00:00Z,26.5255,-82.0032,2.72,27.43,11111222 
SCCF RECON,ioos:station:SCCF:13:1,2019-08-03T19:00:00Z,26.5255,-82.0032,2.77,29.85,11111222 
SCCF RECON,ioos:station:SCCF:13:1,2019-08-03T20:00:00Z,26.5255,-82.0032,2.789,30.62,11111222 
SCCF RECON,ioos:station:SCCF:13:1,2019-08-03T21:00:00Z,26.5255,-82.0032,2.74,30.63,11111222 
SCCF RECON,ioos:station:SCCF:13:1,2019-08-03T22:00:00Z,26.5255,-82.0032,2.62,30.57,11111222 
SCCF RECON,ioos:station:SCCF:13:1,2019-08-03T23:00:00Z,26.5255,-82.0032,2.48,28.72,11111222 
SCCF RECON,ioos:station:SCCF:13:1,2019-08-04T04:00:00Z,26.5255,-82.0032,2.172,15.2,11111222 
SCCF RECON,ioos:station:SCCF:13:1,2019-08-04T05:00:00Z,26.5255,-82.0032,2.34,13.76,11111222 
SCCF RECON,ioos:station:SCCF:13:1,2019-08-04T06:00:00Z,26.5255,-82.0032,2.44,14.2,11111222 
SCCF RECON,ioos:station:SCCF:13:1,2019-08-04T07:00:00Z,26.5255,-82.0032,2.51,17.82,11111222 
SCCF RECON,ioos:station:SCCF:13:1,2019-08-04T08:00:00Z,26.5255,-82.0032,2.592,23.23,11111222 
SCCF RECON,ioos:station:SCCF:13:1,2019-08-04T09:00:00Z,26.5255,-82.0032,2.62,26.37,11111222 
SCCF RECON,ioos:station:SCCF:13:1,2019-08-04T10:00:00Z,26.5255,-82.0032,2.61,27.78,11111222 
SCCF RECON,ioos:station:SCCF:13:1,2019-08-04T11:00:00Z,26.5255,-82.0032,2.545,28.02,11111222 
SCCF RECON,ioos:station:SCCF:13:1,2019-08-04T12:00:00Z,26.5255,-82.0032,2.45,26.09,11111222 
SCCF RECON,ioos:station:SCCF:13:1,2019-08-04T13:00:00Z,26.5255,-82.0032,2.36,22.08,11111222 
SCCF RECON,ioos:station:SCCF:13:1,2019-08-04T14:00:00Z,26.5255,-82.0032,2.301,17.37,11111222 
SCCF RECON,ioos:station:SCCF:13:1,2019-08-04T15:00:00Z,26.5255,-82.0032,2.264,14.8,11111222 
SCCF RECON,ioos:station:SCCF:13:1,2019-08-04T16:00:00Z,26.5255,-82.0032,2.34,13.39,11111222 
SCCF RECON,ioos:station:SCCF:13:1,2019-08-04T17:00:00Z,26.5255,-82.0032,2.479,13.64,11111222 
SCCF RECON,ioos:station:SCCF:13:1,2019-08-04T18:00:00Z,26.5255,-82.0032,2.57,18.72,11111222 
SCCF RECON,ioos:station:SCCF:13:1,2019-08-04T19:00:00Z,26.5255,-82.0032,2.6,22.48,11111222 
SCCF RECON,ioos:station:SCCF:13:1,2019-08-04T20:00:00Z,26.5255,-82.0032,2.66,24.91,11111222 
SCCF RECON,ioos:station:SCCF:13:1,2019-08-04T21:00:00Z,26.5255,-82.0032,2.67,28.03,11111222 
SCCF RECON,ioos:station:SCCF:13:1,2019-08-04T22:00:00Z,26.5255,-82.0032,2.63,29.05,11111222 
SCCF RECON,ioos:station:SCCF:13:1,2019-08-04T23:00:00Z,26.5255,-82.0032,2.526,29.12,11111222 
SCCF RECON,ioos:station:SCCF:13:1,2019-08-05T04:00:00Z,26.5255,-82.0032,2.118,12.36,11111222 
SCCF RECON,ioos:station:SCCF:13:1,2019-08-05T05:00:00Z,26.5255,-82.0032,2.23,11.6,11111222 
SCCF RECON,ioos:station:SCCF:13:1,2019-08-05T06:00:00Z,26.5255,-82.0032,2.395,11.25,11111222 
SCCF RECON,ioos:station:SCCF:13:1,2019-08-05T07:00:00Z,26.5255,-82.0032,2.47,14.75,11111222 
SCCF RECON,ioos:station:SCCF:13:1,2019-08-05T08:00:00Z,26.5255,-82.0032,2.55,20.03,11111222 
SCCF RECON,ioos:station:SCCF:13:1,2019-08-05T09:00:00Z,26.5255,-82.0032,2.623,24.75,11111222 
SCCF RECON,ioos:station:SCCF:13:1,2019-08-05T10:00:00Z,26.5255,-82.0032,2.679,27.04,11111222 
SCCF RECON,ioos:station:SCCF:13:1,2019-08-05T11:00:00Z,26.5255,-82.0032,2.565,27.39,11111222 
SCCF RECON,ioos:station:SCCF:13:1,2019-08-05T12:00:00Z,26.5255,-82.0032,2.489,27.52,11111222 
SCCF RECON,ioos:station:SCCF:13:1,2019-08-05T13:00:00Z,26.5255,-82.0032,2.39,24.11,11111222 
SCCF RECON,ioos:station:SCCF:13:1,2019-08-05T14:00:00Z,26.5255,-82.0032,2.33,16.97,11111222 
SCCF RECON,ioos:station:SCCF:13:1,2019-08-05T15:00:00Z,26.5255,-82.0032,2.27,13.11,11111222 
SCCF RECON,ioos:station:SCCF:13:1,2019-08-05T16:00:00Z,26.5255,-82.0032,2.22,12.65,11111222 
SCCF RECON,ioos:station:SCCF:13:1,2019-08-05T17:00:00Z,26.5255,-82.0032,2.29,11.45,11111222 
SCCF RECON,ioos:station:SCCF:13:1,2019-08-05T18:00:00Z,26.5255,-82.0032,2.39,11.38,11111222 
SCCF RECON,ioos:station:SCCF:13:1,2019-08-05T19:00:00Z,26.5255,-82.0032,2.49,17.14,11111222 
SCCF RECON,ioos:station:SCCF:13:1,2019-08-05T20:00:00Z,26.5255,-82.0032,2.53,16.73,11111222 
SCCF RECON,ioos:station:SCCF:13:1,2019-08-05T21:00:00Z,26.5255,-82.0032,2.55,21.51,11111222 
SCCF RECON,ioos:station:SCCF:13:1,2019-08-05T22:00:00Z,26.5255,-82.0032,2.56,23.89,11111222 
SCCF RECON,ioos:station:SCCF:13:1,2019-08-05T23:00:00Z,26.5255,-82.0032,2.55,24.81,11111222 
SCCF RECON,ioos:station:SCCF:13:1,2019-08-06T04:00:00Z,26.5255,-82.0032,2.14,10.47,11111222 
SCCF RECON,ioos:station:SCCF:13:1,2019-08-06T05:00:00Z,26.5255,-82.0032,2.151,9.15,11111222 
SCCF RECON,ioos:station:SCCF:13:1,2019-08-06T06:00:00Z,26.5255,-82.0032,2.31,8.61,11111222 
SCCF RECON,ioos:station:SCCF:13:1,2019-08-06T07:00:00Z,26.5255,-82.0032,2.43,10.84,11111222 
SCCF RECON,ioos:station:SCCF:13:1,2019-08-06T08:00:00Z,26.5255,-82.0032,2.51,15.68,11111222 
SCCF RECON,ioos:station:SCCF:13:1,2019-08-06T09:00:00Z,26.5255,-82.0032,2.57,21.22,11111222 
SCCF RECON,ioos:station:SCCF:13:1,2019-08-06T10:00:00Z,26.5255,-82.0032,2.61,25.55,11111222 
SCCF RECON,ioos:station:SCCF:13:1,2019-08-06T11:00:00Z,26.5255,-82.0032,2.61,25.77,11111222 
SCCF RECON,ioos:station:SCCF:13:1,2019-08-06T12:00:00Z,26.5255,-82.0032,2.55,26.61,11111222 
SCCF RECON,ioos:station:SCCF:13:1,2019-08-06T13:00:00Z,26.5255,-82.0032,2.46,26.5,11111222 
SCCF RECON,ioos:station:SCCF:13:1,2019-08-06T14:00:00Z,26.5255,-82.0032,2.361,22.5,11111222 
SCCF RECON,ioos:station:SCCF:13:1,2019-08-06T15:00:00Z,26.5255,-82.0032,2.278,13.61,11111222 
SCCF RECON,ioos:station:SCCF:13:1,2019-08-06T16:00:00Z,26.5255,-82.0032,2.207,12.04,11111222 
SCCF RECON,ioos:station:SCCF:13:1,2019-08-06T17:00:00Z,26.5255,-82.0032,2.166,11.04,11111222 
SCCF RECON,ioos:station:SCCF:13:1,2019-08-06T18:00:00Z,26.5255,-82.0032,2.19,9.77,11111222 
SCCF RECON,ioos:station:SCCF:13:1,2019-08-06T19:00:00Z,26.5255,-82.0032,2.291,9.13,11111222 
SCCF RECON,ioos:station:SCCF:13:1,2019-08-06T20:00:00Z,26.5255,-82.0032,2.388,11.47,11111222 
SCCF RECON,ioos:station:SCCF:13:1,2019-08-06T21:00:00Z,26.5255,-82.0032,2.43,13.88,11111222 
SCCF RECON,ioos:station:SCCF:13:1,2019-08-06T22:00:00Z,26.5255,-82.0032,2.455,17.05,11111222 
SCCF RECON,ioos:station:SCCF:13:1,2019-08-06T23:00:00Z,26.5255,-82.0032,2.5,18.94,11111222 
SCCF RECON,ioos:station:SCCF:13:1,2019-08-07T04:00:00Z,26.5255,-82.0032,2.162,9.42,11111222 
SCCF RECON,ioos:station:SCCF:13:1,2019-08-07T05:00:00Z,26.5255,-82.0032,2.14,9.01,11111222 
SCCF RECON,ioos:station:SCCF:13:1,2019-08-07T06:00:00Z,26.5255,-82.0032,2.23,7.62,11111222 
SCCF RECON,ioos:station:SCCF:13:1,2019-08-07T07:00:00Z,26.5255,-82.0032,2.35,8.01,11111222 
SCCF RECON,ioos:station:SCCF:13:1,2019-08-07T08:00:00Z,26.5255,-82.0032,2.44,12.5,11111222 
SCCF RECON,ioos:station:SCCF:13:1,2019-08-07T09:00:00Z,26.5255,-82.0032,2.504,18.33,11111222 
SCCF RECON,ioos:station:SCCF:13:1,2019-08-07T10:00:00Z,26.5255,-82.0032,2.56,22.72,11111222 
SCCF RECON,ioos:station:SCCF:13:1,2019-08-07T11:00:00Z,26.5255,-82.0032,2.592,25.33,11111222 
SCCF RECON,ioos:station:SCCF:13:1,2019-08-07T12:00:00Z,26.5255,-82.0032,2.6,25.21,11111222 
SCCF RECON,ioos:station:SCCF:13:1,2019-08-07T13:00:00Z,26.5255,-82.0032,2.548,26.18,11111222 
SCCF RECON,ioos:station:SCCF:13:1,2019-08-07T14:00:00Z,26.5255,-82.0032,2.441,25.36,11111222 
SCCF RECON,ioos:station:SCCF:13:1,2019-08-07T15:00:00Z,26.5255,-82.0032,2.33,18.72,11111222 
SCCF RECON,ioos:station:SCCF:13:1,2019-08-07T16:00:00Z,26.5255,-82.0032,2.25,12.86,11111222 
SCCF RECON,ioos:station:SCCF:13:1,2019-08-07T17:00:00Z,26.5255,-82.0032,2.17,11.87,11111222 
SCCF RECON,ioos:station:SCCF:13:1,2019-08-07T18:00:00Z,26.5255,-82.0032,2.11,9.83,11111222 
SCCF RECON,ioos:station:SCCF:13:1,2019-08-07T19:00:00Z,26.5255,-82.0032,2.11,8.36,11111222 
SCCF RECON,ioos:station:SCCF:13:1,2019-08-07T20:00:00Z,26.5255,-82.0032,2.19,7.35,11111222 
SCCF RECON,ioos:station:SCCF:13:1,2019-08-07T21:00:00Z,26.5255,-82.0032,2.305,7.06,11111222 
SCCF RECON,ioos:station:SCCF:13:1,2019-08-07T22:00:00Z,26.5255,-82.0032,2.35,9.34,11111222 
SCCF RECON,ioos:station:SCCF:13:1,2019-08-07T23:00:00Z,26.5255,-82.0032,2.37,14.16,11111222 
SCCF RECON,ioos:station:SCCF:13:1,2019-08-08T04:00:00Z,26.5255,-82.0032,2.24,10.96,11111222 
SCCF RECON,ioos:station:SCCF:13:1,2019-08-08T05:00:00Z,26.5255,-82.0032,2.22,7.11,11111222 
SCCF RECON,ioos:station:SCCF:13:1,2019-08-08T06:00:00Z,26.5255,-82.0032,2.24,6.26,11111222 
SCCF RECON,ioos:station:SCCF:13:1,2019-08-08T07:00:00Z,26.5255,-82.0032,2.29,7.06,11111222 
SCCF RECON,ioos:station:SCCF:13:1,2019-08-08T08:00:00Z,26.5255,-82.0032,2.36,16.66,11111222 
SCCF RECON,ioos:station:SCCF:13:1,2019-08-08T09:00:00Z,26.5255,-82.0032,2.43,18.08,11111222 
SCCF RECON,ioos:station:SCCF:13:1,2019-08-08T10:00:00Z,26.5255,-82.0032,2.487,21.34,11111222 
SCCF RECON,ioos:station:SCCF:13:1,2019-08-08T11:00:00Z,26.5255,-82.0032,2.54,24.0,11111222 
SCCF RECON,ioos:station:SCCF:13:1,2019-08-08T12:00:00Z,26.5255,-82.0032,2.566,24.92,11111222 
SCCF RECON,ioos:station:SCCF:13:1,2019-08-08T13:00:00Z,26.5255,-82.0032,2.569,24.79,11111222 
SCCF RECON,ioos:station:SCCF:13:1,2019-08-08T14:00:00Z,26.5255,-82.0032,2.51,26.33,11111222 
SCCF RECON,ioos:station:SCCF:13:1,2019-08-08T15:00:00Z,26.5255,-82.0032,2.39,25.65,11111222 
SCCF RECON,ioos:station:SCCF:13:1,2019-08-08T16:00:00Z,26.5255,-82.0032,2.287,16.21,11111222 
SCCF RECON,ioos:station:SCCF:13:1,2019-08-08T17:00:00Z,26.5255,-82.0032,2.2,9.45,11111222 
SCCF RECON,ioos:station:SCCF:13:1,2019-08-08T18:00:00Z,26.5255,-82.0032,2.12,8.89,11111222 
SCCF RECON,ioos:station:SCCF:13:1,2019-08-08T19:00:00Z,26.5255,-82.0032,2.06,7.25,11111222 
SCCF RECON,ioos:station:SCCF:13:1,2019-08-08T20:00:00Z,26.5255,-82.0032,2.04,6.57,11111222 
SCCF RECON,ioos:station:SCCF:13:1,2019-08-08T21:00:00Z,26.5255,-82.0032,2.098,5.59,11111222 
SCCF RECON,ioos:station:SCCF:13:1,2019-08-08T22:00:00Z,26.5255,-82.0032,2.19,4.81,11111222 
SCCF RECON,ioos:station:SCCF:13:1,2019-08-08T23:00:00Z,26.5255,-82.0032,2.246,5.12,11111222 
SCCF RECON,ioos:station:SCCF:13:1,2019-08-09T04:00:00Z,26.5255,-82.0032,2.31,19.31,11111222 
SCCF RECON,ioos:station:SCCF:13:1,2019-08-09T05:00:00Z,26.5255,-82.0032,2.28,17.87,11111222 
SCCF RECON,ioos:station:SCCF:13:1,2019-08-09T06:00:00Z,26.5255,-82.0032,2.26,14.17,11111222 
SCCF RECON,ioos:station:SCCF:13:1,2019-08-09T07:00:00Z,26.5255,-82.0032,2.25,11.71,11111222 
SCCF RECON,ioos:station:SCCF:13:1,2019-08-09T08:00:00Z,26.5255,-82.0032,2.29,19.87,11111222 
SCCF RECON,ioos:station:SCCF:13:1,2019-08-09T09:00:00Z,26.5255,-82.0032,2.35,19.41,11111222 
SCCF RECON,ioos:station:SCCF:13:1,2019-08-09T10:00:00Z,26.5255,-82.0032,2.407,21.97,11111222 
SCCF RECON,ioos:station:SCCF:13:1,2019-08-09T11:00:00Z,26.5255,-82.0032,2.46,21.14,11111222 
SCCF RECON,ioos:station:SCCF:13:1,2019-08-09T12:00:00Z,26.5255,-82.0032,2.5,23.28,11111222 
SCCF RECON,ioos:station:SCCF:13:1,2019-08-09T13:00:00Z,26.5255,-82.0032,2.535,22.73,11111222 
SCCF RECON,ioos:station:SCCF:13:1,2019-08-09T14:00:00Z,26.5255,-82.0032,2.56,24.35,11111222 
SCCF RECON,ioos:station:SCCF:13:1,2019-08-09T15:00:00Z,26.5255,-82.0032,2.53,26.7,11111222 
SCCF RECON,ioos:station:SCCF:13:1,2019-08-09T16:00:00Z,26.5255,-82.0032,2.44,25.41,11111222 
SCCF RECON,ioos:station:SCCF:13:1,2019-08-09T17:00:00Z,26.5255,-82.0032,2.3,17.13,11111222 
SCCF RECON,ioos:station:SCCF:13:1,2019-08-09T18:00:00Z,26.5255,-82.0032,2.2,11.95,11111222 
SCCF RECON,ioos:station:SCCF:13:1,2019-08-09T19:00:00Z,26.5255,-82.0032,2.112,9.44,11111222 
SCCF RECON,ioos:station:SCCF:13:1,2019-08-09T20:00:00Z,26.5255,-82.0032,2.036,7.78,11111222 
SCCF RECON,ioos:station:SCCF:13:1,2019-08-09T21:00:00Z,26.5255,-82.0032,1.992,5.9,11111222 
SCCF RECON,ioos:station:SCCF:13:1,2019-08-09T22:00:00Z,26.5255,-82.0032,2.029,4.5,11111222 
SCCF RECON,ioos:station:SCCF:13:1,2019-08-09T23:00:00Z,26.5255,-82.0032,2.129,3.95,11111222 
SCCF RECON,ioos:station:SCCF:13:1,2019-08-10T04:00:00Z,26.5255,-82.0032,2.35,17.61,11111222 
SCCF RECON,ioos:station:SCCF:13:1,2019-08-10T05:00:00Z,26.5255,-82.0032,2.32,21.98,11111222 
SCCF RECON,ioos:station:SCCF:13:1,2019-08-10T06:00:00Z,26.5255,-82.0032,2.3,22.95,11111222 
SCCF RECON,ioos:station:SCCF:13:1,2019-08-10T07:00:00Z,26.5255,-82.0032,2.27,20.04,11111222 
SCCF RECON,ioos:station:SCCF:13:1,2019-08-10T08:00:00Z,26.5255,-82.0032,2.25,12.63,11111222 
SCCF RECON,ioos:station:SCCF:13:1,2019-08-10T09:00:00Z,26.5255,-82.0032,2.261,14.6,11111222 
SCCF RECON,ioos:station:SCCF:13:1,2019-08-10T10:00:00Z,26.5255,-82.0032,2.33,23.11,11111222 
SCCF RECON,ioos:station:SCCF:13:1,2019-08-10T11:00:00Z,26.5255,-82.0032,2.4,22.24,11111222 
SCCF RECON,ioos:station:SCCF:13:1,2019-08-10T12:00:00Z,26.5255,-82.0032,2.47,24.56,11111222 
SCCF RECON,ioos:station:SCCF:13:1,2019-08-10T13:00:00Z,26.5255,-82.0032,2.52,23.0,11111222 
SCCF RECON,ioos:station:SCCF:13:1,2019-08-10T14:00:00Z,26.5255,-82.0032,2.56,23.17,11111222 
SCCF RECON,ioos:station:SCCF:13:1,2019-08-10T15:00:00Z,26.5255,-82.0032,2.561,23.32,11111222 
SCCF RECON,ioos:station:SCCF:13:1,2019-08-10T16:00:00Z,26.5255,-82.0032,2.49,27.4,11111222 
SCCF RECON,ioos:station:SCCF:13:1,2019-08-10T17:00:00Z,26.5255,-82.0032,2.385,22.16,11111222 
SCCF RECON,ioos:station:SCCF:13:1,2019-08-10T18:00:00Z,26.5255,-82.0032,2.27,14.83,11111222 
SCCF RECON,ioos:station:SCCF:13:1,2019-08-10T19:00:00Z,26.5255,-82.0032,2.163,9.51,11111222 
SCCF RECON,ioos:station:SCCF:13:1,2019-08-10T20:00:00Z,26.5255,-82.0032,2.078,7.74,11111222 
SCCF RECON,ioos:station:SCCF:13:1,2019-08-10T21:00:00Z,26.5255,-82.0032,2.0,6.05,11111222 
SCCF RECON,ioos:station:SCCF:13:1,2019-08-10T22:00:00Z,26.5255,-82.0032,1.95,4.55,11111222 
SCCF RECON,ioos:station:SCCF:13:1,2019-08-10T23:00:00Z,26.5255,-82.0032,1.983,3.26,11111222 
SCCF RECON,ioos:station:SCCF:13:1,2019-08-11T04:00:00Z,26.5255,-82.0032,2.348,15.2,11111222 
SCCF RECON,ioos:station:SCCF:13:1,2019-08-11T05:00:00Z,26.5255,-82.0032,2.35,20.58,11111222 
SCCF RECON,ioos:station:SCCF:13:1,2019-08-11T06:00:00Z,26.5255,-82.0032,2.34,23.13,11111222 
SCCF RECON,ioos:station:SCCF:13:1,2019-08-11T07:00:00Z,26.5255,-82.0032,2.32,24.32,11111222 
SCCF RECON,ioos:station:SCCF:13:1,2019-08-11T08:00:00Z,26.5255,-82.0032,2.27,23.12,11111222 
SCCF RECON,ioos:station:SCCF:13:1,2019-08-11T09:00:00Z,26.5255,-82.0032,2.24,13.21,11111222 
SCCF RECON,ioos:station:SCCF:13:1,2019-08-11T10:00:00Z,26.5255,-82.0032,2.27,19.6,11111222 
SCCF RECON,ioos:station:SCCF:13:1,2019-08-11T11:00:00Z,26.5255,-82.0032,2.351,23.93,11111222 
SCCF RECON,ioos:station:SCCF:13:1,2019-08-11T12:00:00Z,26.5255,-82.0032,2.44,23.29,11111222 
SCCF RECON,ioos:station:SCCF:13:1,2019-08-11T13:00:00Z,26.5255,-82.0032,2.512,23.73,11111222 
SCCF RECON,ioos:station:SCCF:13:1,2019-08-11T14:00:00Z,26.5255,-82.0032,2.589,23.5,11111222 
SCCF RECON,ioos:station:SCCF:13:1,2019-08-11T15:00:00Z,26.5255,-82.0032,2.61,22.98,11111222 
SCCF RECON,ioos:station:SCCF:13:1,2019-08-11T16:00:00Z,26.5255,-82.0032,2.595,23.51,11111222 
SCCF RECON,ioos:station:SCCF:13:1,2019-08-11T17:00:00Z,26.5255,-82.0032,2.53,27.25,11111222 
SCCF RECON,ioos:station:SCCF:13:1,2019-08-11T18:00:00Z,26.5255,-82.0032,2.39,24.29,11111222 
SCCF RECON,ioos:station:SCCF:13:1,2019-08-11T19:00:00Z,26.5255,-82.0032,2.28,15.63,11111222 
SCCF RECON,ioos:station:SCCF:13:1,2019-08-11T20:00:00Z,26.5255,-82.0032,2.171,10.62,11111222 
SCCF RECON,ioos:station:SCCF:13:1,2019-08-11T21:00:00Z,26.5255,-82.0032,2.079,7.48,11111222 
SCCF RECON,ioos:station:SCCF:13:1,2019-08-11T22:00:00Z,26.5255,-82.0032,1.996,6.26,11111222 
SCCF RECON,ioos:station:SCCF:13:1,2019-08-11T23:00:00Z,26.5255,-82.0032,1.958,5.25,11111222 
SCCF RECON,ioos:station:SCCF:13:1,2019-08-12T04:00:00Z,26.5255,-82.0032,2.31,10.56,11111222 
SCCF RECON,ioos:station:SCCF:13:1,2019-08-12T05:00:00Z,26.5255,-82.0032,2.35,14.94,11111222 
SCCF RECON,ioos:station:SCCF:13:1,2019-08-12T06:00:00Z,26.5255,-82.0032,2.36,19.52,11111222 
SCCF RECON,ioos:station:SCCF:13:1,2019-08-12T07:00:00Z,26.5255,-82.0032,2.33,22.15,11111222 
SCCF RECON,ioos:station:SCCF:13:1,2019-08-12T08:00:00Z,26.5255,-82.0032,2.28,21.84,11111222 
SCCF RECON,ioos:station:SCCF:13:1,2019-08-12T10:00:00Z,26.5255,-82.0032,2.24,13.35,11111222 
SCCF RECON,ioos:station:SCCF:13:1,2019-08-12T11:00:00Z,26.5255,-82.0032,2.27,10.71,11111222 
SCCF RECON,ioos:station:SCCF:13:1,2019-08-12T12:00:00Z,26.5255,-82.0032,2.349,22.63,11111222 
SCCF RECON,ioos:station:SCCF:13:1,2019-08-12T13:00:00Z,26.5255,-82.0032,2.45,23.9,11111222 
SCCF RECON,ioos:station:SCCF:13:1,2019-08-12T14:00:00Z,26.5255,-82.0032,2.527,19.84,11111222 
SCCF RECON,ioos:station:SCCF:13:1,2019-08-12T15:00:00Z,26.5255,-82.0032,2.584,21.74,11111222 
SCCF RECON,ioos:station:SCCF:13:1,2019-08-12T16:00:00Z,26.5255,-82.0032,2.58,23.84,11111222 
SCCF RECON,ioos:station:SCCF:13:1,2019-08-12T17:00:00Z,26.5255,-82.0032,2.54,26.82,11111222 
SCCF RECON,ioos:station:SCCF:13:1,2019-08-12T18:00:00Z,26.5255,-82.0032,2.46,28.45,11111222 
SCCF RECON,ioos:station:SCCF:13:1,2019-08-12T19:00:00Z,26.5255,-82.0032,2.34,22.6,11111222 
SCCF RECON,ioos:station:SCCF:13:1,2019-08-12T20:00:00Z,26.5255,-82.0032,2.229,13.56,11111222 
SCCF RECON,ioos:station:SCCF:13:1,2019-08-12T21:00:00Z,26.5255,-82.0032,2.132,9.21,11111222 
SCCF RECON,ioos:station:SCCF:13:1,2019-08-12T22:00:00Z,26.5255,-82.0032,2.04,7.63,11111222 
SCCF RECON,ioos:station:SCCF:13:1,2019-08-12T23:00:00Z,26.5255,-82.0032,1.96,5.47,11111222 
SCCF RECON,ioos:station:SCCF:13:1,2019-08-13T04:00:00Z,26.5255,-82.0032,2.3,7.44,11111222 
SCCF RECON,ioos:station:SCCF:13:1,2019-08-13T05:00:00Z,26.5255,-82.0032,2.37,13.38,11111222 
SCCF RECON,ioos:station:SCCF:13:1,2019-08-13T06:00:00Z,26.5255,-82.0032,2.4,21.37,11111222 
SCCF RECON,ioos:station:SCCF:13:1,2019-08-13T07:00:00Z,26.5255,-82.0032,2.38,23.53,11111222 
SCCF RECON,ioos:station:SCCF:13:1,2019-08-13T08:00:00Z,26.5255,-82.0032,2.34,24.15,11111222 
SCCF RECON,ioos:station:SCCF:13:1,2019-08-13T09:00:00Z,26.5255,-82.0032,2.308,21.12,11111222 
SCCF RECON,ioos:station:SCCF:13:1,2019-08-13T10:00:00Z,26.5255,-82.0032,2.26,16.08,11111222 
SCCF RECON,ioos:station:SCCF:13:1,2019-08-13T11:00:00Z,26.5255,-82.0032,2.26,13.4,11111222 
SCCF RECON,ioos:station:SCCF:13:1,2019-08-13T12:00:00Z,26.5255,-82.0032,2.32,21.99,11111222 
SCCF RECON,ioos:station:SCCF:13:1,2019-08-13T13:00:00Z,26.5255,-82.0032,2.421,22.1,11111222 
SCCF RECON,ioos:station:SCCF:13:1,2019-08-13T14:00:00Z,26.5255,-82.0032,2.51,23.05,11111222 
SCCF RECON,ioos:station:SCCF:13:1,2019-08-13T16:00:00Z,26.5255,-82.0032,2.64,24.02,11111222 
SCCF RECON,ioos:station:SCCF:13:1,2019-08-13T17:00:00Z,26.5255,-82.0032,2.65,24.93,11111222 
SCCF RECON,ioos:station:SCCF:13:1,2019-08-13T18:00:00Z,26.5255,-82.0032,2.574,26.46,11111222 
SCCF RECON,ioos:station:SCCF:13:1,2019-08-13T19:00:00Z,26.5255,-82.0032,2.471,26.61,11111222 
SCCF RECON,ioos:station:SCCF:13:1,2019-08-13T20:00:00Z,26.5255,-82.0032,2.36,20.76,11111222 
SCCF RECON,ioos:station:SCCF:13:1,2019-08-13T21:00:00Z,26.5255,-82.0032,2.241,12.77,11111222 
SCCF RECON,ioos:station:SCCF:13:1,2019-08-13T22:00:00Z,26.5255,-82.0032,2.14,8.93,11111222 